Total_Precipitation_Accumulation
0.02 0.06 0.24 0.31 0.30 0.30 0.33 0.33 0.30 0.28 0.31 0.35 0.37 0.39 0.36 0.35 0.34 0.33 0.34 0.36 0.33 0.36 0.43 0.51 0.54 0.52 0.48 0.45 0.44 0.41 0.40 0.37 0.32 0.27 0.27 0.30 0.28 0.24 0.21 0.20 0.17 0.26 0.34
0.02 0.06 0.20 0.25 0.28 0.32 0.34 0.31 0.28 0.25 0.28 0.32 0.33 0.35 0.36 0.33 0.33 0.33 0.34 0.34 0.35 0.38 0.43 0.48 0.51 0.51 0.47 0.45 0.49 0.45 0.39 0.30 0.24 0.19 0.18 0.18 0.24 0.27 0.26 0.25 0.24 0.32 0.32
0.02 0.05 0.15 0.22 0.26 0.33 0.35 0.30 0.26 0.25 0.26 0.29 0.33 0.36 0.37 0.35 0.33 0.32 0.33 0.36 0.41 0.45 0.48 0.50 0.48 0.45 0.45 0.47 0.45 0.44 0.39 0.29 0.18 0.15 0.14 0.19 0.27 0.32 0.33 0.29 0.27 0.30 0.30
0.01 0.04 0.09 0.20 0.25 0.33 0.35 0.34 0.30 0.28 0.28 0.29 0.31 0.34 0.37 0.40 0.39 0.35 0.35 0.41 0.46 0.52 0.57 0.54 0.48 0.48 0.50 0.48 0.39 0.37 0.39 0.33 0.20 0.12 0.08 0.18 0.35 0.45 0.40 0.35 0.30 0.30 0.32
0.01 0.03 0.10 0.20 0.26 0.32 0.36 0.39 0.39 0.37 0.35 0.34 0.33 0.33 0.35 0.38 0.38 0.38 0.38 0.43 0.48 0.50 0.53 0.54 0.51 0.51 0.48 0.43 0.35 0.33 0.43 0.43 0.26 0.09 0.08 0.11 0.28 0.59 0.43 0.39 0.36 0.32 0.31
0.01 0.04 0.11 0.22 0.29 0.34 0.37 0.44 0.45 0.45 0.45 0.45 0.43 0.41 0.41 0.41 0.40 0.39 0.40 0.40 0.40 0.41 0.45 0.47 0.48 0.50 0.49 0.45 0.36 0.37 0.49 0.54 0.28 0.11 0.12 0.15 0.28 0.56 0.47 0.43 0.39 0.34 0.32
0.02 0.05 0.12 0.25 0.34 0.36 0.39 0.44 0.47 0.50 0.54 0.55 0.57 0.56 0.53 0.50 0.47 0.46 0.45 0.41 0.35 0.35 0.39 0.43 0.44 0.47 0.49 0.47 0.42 0.50 0.59 0.55 0.30 0.26 0.18 0.16 0.30 0.53 0.55 0.50 0.44 0.38 0.36
0.03 0.07 0.15 0.32 0.39 0.39 0.41 0.46 0.50 0.53 0.59 0.61 0.62 0.63 0.60 0.55 0.53 0.55 0.53 0.47 0.39 0.33 0.33 0.35 0.37 0.42 0.43 0.42 0.45 0.58 0.60 0.39 0.18 0.13 0.11 0.14 0.30 0.54 0.76 0.69 0.54 0.45 0.40
0.06 0.10 0.19 0.33 0.42 0.46 0.48 0.50 0.52 0.56 0.59 0.62 0.64 0.67 0.64 0.57 0.56 0.56 0.56 0.49 0.44 0.40 0.36 0.33 0.32 0.34 0.34 0.37 0.42 0.45 0.39 0.26 0.15 0.18 0.14 0.20 0.32 0.63 0.93 0.89 0.68 0.52 0.44
0.10 0.15 0.21 0.33 0.43 0.47 0.51 0.54 0.53 0.55 0.58 0.60 0.64 0.66 0.62 0.56 0.54 0.53 0.49 0.45 0.43 0.44 0.42 0.35 0.33 0.31 0.28 0.27 0.29 0.30 0.26 0.20 0.13 0.17 0.22 0.23 0.26 0.60 0.98 0.97 0.83 0.66 0.56
0.18 0.22 0.26 0.36 0.46 0.51 0.54 0.56 0.57 0.58 0.59 0.59 0.60 0.60 0.61 0.57 0.55 0.53 0.47 0.42 0.42 0.42 0.40 0.37 0.34 0.31 0.26 0.21 0.20 0.21 0.18 0.13 0.15 0.21 0.23 0.21 0.28 0.60 0.98 1.03 0.92 0.79 0.71
0.21 0.25 0.31 0.39 0.47 0.56 0.58 0.61 0.63 0.58 0.56 0.54 0.50 0.50 0.53 0.54 0.52 0.49 0.48 0.47 0.46 0.45 0.42 0.42 0.39 0.33 0.27 0.22 0.22 0.23 0.14 0.11 0.16 0.17 0.16 0.17 0.31 0.62 0.95 1.06 1.03 0.92 0.86
0.21 0.27 0.33 0.42 0.51 0.58 0.59 0.60 0.60 0.55 0.53 0.53 0.51 0.53 0.58 0.60 0.56 0.55 0.53 0.51 0.49 0.48 0.51 0.53 0.52 0.43 0.38 0.36 0.36 0.29 0.20 0.18 0.15 0.14 0.12 0.14 0.24 0.48 0.80 1.02 1.11 1.09 1.07
0.26 0.29 0.34 0.44 0.55 0.60 0.61 0.61 0.58 0.53 0.50 0.50 0.49 0.53 0.60 0.61 0.57 0.53 0.53 0.50 0.49 0.49 0.49 0.52 0.54 0.49 0.45 0.39 0.38 0.35 0.32 0.26 0.19 0.16 0.13 0.14 0.16 0.26 0.46 0.73 0.97 1.13 1.19
0.25 0.30 0.35 0.42 0.53 0.61 0.66 0.66 0.62 0.55 0.48 0.46 0.45 0.46 0.47 0.51 0.52 0.48 0.43 0.40 0.40 0.41 0.42 0.42 0.42 0.44 0.45 0.41 0.37 0.35 0.34 0.31 0.26 0.21 0.17 0.16 0.14 0.17 0.26 0.43 0.67 0.99 1.20
0.24 0.29 0.36 0.42 0.51 0.62 0.65 0.68 0.67 0.63 0.55 0.51 0.47 0.43 0.42 0.44 0.44 0.43 0.39 0.34 0.31 0.31 0.31 0.31 0.29 0.29 0.31 0.34 0.33 0.31 0.29 0.29 0.30 0.29 0.27 0.26 0.18 0.17 0.21 0.33 0.49 0.73 1.05
0.24 0.32 0.37 0.45 0.53 0.62 0.67 0.70 0.72 0.72 0.70 0.62 0.53 0.48 0.43 0.43 0.44 0.44 0.42 0.37 0.32 0.32 0.33 0.31 0.27 0.25 0.25 0.26 0.28 0.28 0.25 0.24 0.27 0.32 0.33 0.32 0.27 0.23 0.22 0.28 0.40 0.57 0.83
0.27 0.33 0.40 0.45 0.55 0.61 0.70 0.75 0.75 0.78 0.75 0.70 0.63 0.58 0.50 0.46 0.45 0.47 0.46 0.42 0.40 0.39 0.39 0.39 0.36 0.32 0.29 0.27 0.28 0.31 0.30 0.27 0.27 0.31 0.35 0.33 0.32 0.28 0.25 0.25 0.35 0.50 0.69
0.29 0.35 0.42 0.46 0.52 0.62 0.72 0.83 0.86 0.85 0.82 0.76 0.70 0.66 0.60 0.55 0.48 0.47 0.49 0.47 0.45 0.46 0.45 0.44 0.41 0.39 0.37 0.35 0.35 0.35 0.36 0.33 0.30 0.32 0.35 0.38 0.38 0.34 0.34 0.28 0.28 0.39 0.56
0.30 0.37 0.44 0.48 0.55 0.67 0.81 0.89 0.98 0.96 0.87 0.82 0.78 0.74 0.71 0.66 0.58 0.52 0.48 0.50 0.51 0.52 0.51 0.47 0.46 0.46 0.44 0.40 0.40 0.38 0.38 0.39 0.39 0.36 0.40 0.49 0.48 0.41 0.39 0.39 0.34 0.29 0.35
0.32 0.41 0.46 0.50 0.59 0.72 0.83 0.89 0.88 0.94 0.89 0.80 0.74 0.77 0.78 0.75 0.69 0.63 0.57 0.51 0.54 0.55 0.53 0.48 0.45 0.46 0.45 0.44 0.46 0.44 0.41 0.39 0.36 0.33 0.37 0.49 0.59 0.61 0.56 0.55 0.54 0.46 0.36
0.32 0.40 0.48 0.50 0.54 0.62 0.65 0.73 0.79 0.80 0.82 0.81 0.75 0.74 0.80 0.80 0.74 0.70 0.66 0.58 0.51 0.52 0.52 0.51 0.47 0.45 0.44 0.39 0.42 0.48 0.43 0.40 0.39 0.31 0.27 0.34 0.44 0.52 0.54 0.57 0.62 0.64 0.55
0.30 0.38 0.44 0.51 0.51 0.59 0.65 0.78 0.86 0.92 0.92 0.89 0.84 0.79 0.77 0.79 0.77 0.71 0.66 0.63 0.57 0.52 0.49 0.49 0.48 0.47 0.46 0.41 0.38 0.54 0.59 0.43 0.31 0.22 0.21 0.25 0.27 0.31 0.35 0.41 0.49 0.54 0.60
0.28 0.37 0.44 0.52 0.59 0.60 0.69 0.79 0.79 0.79 0.79 0.72 0.72 0.73 0.78 0.80 0.79 0.76 0.71 0.67 0.63 0.58 0.53 0.48 0.48 0.47 0.49 0.50 0.44 0.42 0.45 0.45 0.48 0.32 0.16 0.16 0.15 0.16 0.18 0.22 0.30 0.36 0.45
0.29 0.37 0.46 0.50 0.63 0.66 0.67 0.74 0.74 0.70 0.68 0.69 0.74 0.78 0.79 0.82 0.84 0.79 0.75 0.72 0.65 0.59 0.56 0.54 0.50 0.51 0.52 0.52 0.50 0.46 0.42 0.37 0.39 0.50 0.33 0.19 0.18 0.16 0.15 0.17 0.19 0.23 0.31
0.30 0.38 0.44 0.51 0.62 0.71 0.70 0.75 0.75 0.71 0.69 0.73 0.77 0.85 0.86 0.87 0.91 0.88 0.78 0.76 0.70 0.60 0.55 0.57 0.56 0.53 0.53 0.52 0.50 0.49 0.53 0.54 0.45 0.49 0.45 0.27 0.23 0.21 0.20 0.19 0.19 0.20 0.25